Tracking 31027 objects as of 19-Jul-2025
HD Live streaming from Space Station
objects crossing your sky now

SL-6 R/B(2)

Track SL-6 R/B(2) now!


NORAD ID: 20333
Int'l Code: 1989-091D
Perigee: 6,255.8 km
Apogee: 33,489.9 km
Inclination: 69.5 °
Period: 705.2 minutes
Semi major axis: 26243 km
RCS: 6.5159 m2 (large)
Launch date: November 23, 1989
Source: Commonwealth of Independent States (former USSR) (CIS)
Launch site: PLESETSK MISSILE AND SPACE COMPLEX (PKMTR)

Note: This is a ROCKET BODY
Your satellite tracking list
COSMOS 2251 DEB
Track 1 satellite(s)




NASA's NSSDC Master Catalog

Two Line Element Set (TLE):
1 20333U 89091D   25197.79028839  .00000168  00000-0  00000-0 0  9993
2 20333  69.4921 150.1663 5188660  57.1395  77.2695  2.04202843238868
Source of the keplerian elements: AFSPC